Stations météo

réclame
Mon MeteoGroup
Mierkenis, Suède (2121): Température de l'air & dewpoint: 12.06.2018 15:00:00 - 18.06.2018 15:00:00 (CEST)Mierkenis, Suède (2121): Vitesse du vent & gusts: 12.06.2018 15:00:00 - 18.06.2018 15:00:00 (CEST)Mierkenis, Suède (2121): Direction du vent: 12.06.2018 15:00:00 - 18.06.2018 15:00:00 (CEST)Mierkenis, Suède (2121): reduced air pressure: 12.06.2018 15:00:00 - 18.06.2018 15:00:00 (CEST)Mierkenis, Suède (2121): visibility: 12.06.2018 15:00:00 - 18.06.2018 15:00:00 (CEST)Mierkenis, Suède (2121): Quantités de précipitations: 12.06.2018 15:00:00 - 18.06.2018 15:00:00 (CEST)
Date & Time tt [°C] td [°C] ff [km/h] ff [knt] fx [km/h] fx [knt] dd ppp [hPa] vv [km] rr [mm]
18.06.2018 15:00:00 8,5 7,5 5 3 10 5 WNW 1001,1 10 1,7
18.06.2018 14:00:00 8,7 7,3 5 3 13 7 NW 1001,2 17 1,0
18.06.2018 13:00:00 8,8 7,6 4 2 13 7 NW 1001,5 17 0,6
18.06.2018 12:00:00 9,0 7,8 7 4 13 7 NW 1001,8 18 0,3
18.06.2018 11:00:00 8,4 7,2 4 2 6 4 N 1002,7 26 0,3
18.06.2018 10:00:00 8,4 6,7 2 1 11 6 ENE 1003,3 12 0,3
18.06.2018 09:00:00 8,8 7,6 3 2 12 7 NW 1003,9 31 0,3
18.06.2018 08:00:00 8,5 7,4 5 3 17 9 SSE 1005,2 18 0,1
18.06.2018 07:00:00 7,7 7,3 5 3 22 12 SSE 1006,6 24 0,2
18.06.2018 06:00:00 7,8 7,4 12 6 27 14 SE 1007,8 13 1,1
18.06.2018 05:00:00 7,9 7,3 16 8 29 16 SE 1008,6 20 0,7
18.06.2018 04:00:00 8,2 7,6 11 6 29 16 SSE 1009,0 11 2,2
18.06.2018 03:00:00 8,6 8,2 14 7 26 14 SSE 1009,5 7 1,9
18.06.2018 02:00:00 9,0 8,1 16 9 26 14 ESE 1010,2 9 1,2
18.06.2018 01:00:00 9,5 7,6 14 8 23 12 E 1010,4 25 0,1
18.06.2018 00:00:00 11,0 6,7 11 6 19 11 ESE 1010,5 50 0,0
17.06.2018 23:00:00 10,3 6,6 5 3 30 16 SSE 1011,1 50 0,0
17.06.2018 22:00:00 11,2 6,1 10 5 41 22 E 1011,5 46 0,0
17.06.2018 21:00:00 11,4 6,1 16 9 41 22 ESE 1011,9 44 0,0
17.06.2018 20:00:00 11,3 5,2 8 5 32 17 SSE 1012,5 30 0,0
17.06.2018 19:00:00 13,3 4,2 14 8 34 19 SE 1012,2 50 0,0
17.06.2018 18:00:00 13,2 3,6 16 8 39 21 S 1012,8 48 0,0
17.06.2018 17:00:00 14,1 3,0 21 11 39 21 S 1012,7 50 0,0
17.06.2018 16:00:00 15,4 2,9 18 10 38 20 SE 1012,1 49 0,0
17.06.2018 15:00:00 16,8 4,1 21 12 35 19 SE 1012,3 45 0,0
17.06.2018 14:00:00 15,5 3,6 13 7 32 17 SSE 1013,4 43 0,0
17.06.2018 13:00:00 14,6 3,1 18 10 32 17 SE 1014,0 37 0,0
17.06.2018 12:00:00 14,7 2,2 15 8 30 16 SE 1014,5 30 0,0
17.06.2018 11:00:00 12,5 2,1 16 8 27 15 SE 1015,7 37 0,0
17.06.2018 10:00:00 11,3 1,5 17 9 26 14 ESE 1016,4 45 0,0
17.06.2018 09:00:00 10,1 1,5 14 7 21 11 SE 1016,9 39 0,0
17.06.2018 08:00:00 9,3 1,2 9 5 18 10 SE 1017,4 39 0,0
17.06.2018 07:00:00 8,1 1,0 7 4 12 7 ESE 1017,8 41 0,0
17.06.2018 06:00:00 5,5 2,5 5 3 8 4 SE 1018,6 37 0,0
17.06.2018 05:00:00 2,6 1,6 2 1 11 6 NW 1019,4 38 0,0
17.06.2018 04:00:00 2,5 1,2 5 3 11 6 NNW 1019,2 43 0,0
17.06.2018 03:00:00 3,6 1,8 0 0 11 6 N 1018,5 40 0,0
17.06.2018 02:00:00 3,6 1,2 5 3 11 6 NNW 1018,3 44 0,0
17.06.2018 01:00:00 2,7 1,4 3 1 15 8 SSW 1018,5 34 0,0
17.06.2018 00:00:00 4,9 1,2 4 2 29 16 NE 1017,5 45 0,0
16.06.2018 23:00:00 5,9 1,6 10 5 29 16 W 1017,0 46 0,0
16.06.2018 22:00:00 6,0 1,7 12 7 29 16 NNW 1016,5 47 0,0
16.06.2018 21:00:00 7,0 1,1 8 5 37 20 NW 1015,8 47 0,0
16.06.2018 20:00:00 8,1 1,9 10 5 37 20 WNW 1015,2 42 0,0
16.06.2018 19:00:00 8,6 1,3 12 7 35 19 W 1014,7 50 0,0
16.06.2018 18:00:00 9,5 2,8 12 6 41 22 W 1014,3 37 0,0
16.06.2018 17:00:00 9,6 3,1 16 9 41 22 W 1013,8 43 0,0
16.06.2018 16:00:00 8,9 3,7 17 9 40 22 W 1013,4 36 0,2
16.06.2018 15:00:00 11,5 2,8 16 8 44 24 WSW 1011,8 36 0,0
16.06.2018 14:00:00 11,0 3,1 12 7 44 24 W 1011,3 32 0,0
16.06.2018 13:00:00 10,8 1,3 13 7 41 22 SSW 1010,8 41 0,0
16.06.2018 12:00:00 10,8 1,6 22 12 41 22 SW 1010,5 42 0,1
16.06.2018 11:00:00 9,0 2,8 13 7 39 21 S 1010,3 22 0,2
16.06.2018 10:00:00 9,8 2,6 14 8 49 26 WSW 1009,4 18 0,0
16.06.2018 09:00:00 9,2 0,6 11 6 49 26 SW 1008,5 47 0,0
16.06.2018 08:00:00 9,7 0,6 17 9 48 26 SW 1007,6 34 0,0
16.06.2018 07:00:00 7,8 1,0 13 7 37 20 W 1007,3 46 0,0
16.06.2018 06:00:00 7,5 0,2 15 8 37 20 WSW 1007,6 49 0,0
16.06.2018 05:00:00 7,2 1,1 12 7 48 26 SSW 1007,3 36 0,0
16.06.2018 04:00:00 7,3 1,2 17 9 48 26 SSW 1006,8 41 0,0
16.06.2018 03:00:00 6,7 1,4 11 6 37 20 SSW 1006,5 40 0,0
16.06.2018 02:00:00 7,3 0,7 10 6 34 19 S 1005,7 32 0,0
16.06.2018 01:00:00 7,2 0,8 9 5 33 18 S 1005,3 49 0,0
16.06.2018 00:00:00 5,0 3,0 4 2 50 27 SE 1005,6 38 0,1
15.06.2018 23:00:00 6,3 2,0 11 6 50 27 WSW 1005,3 10 0,0
15.06.2018 22:00:00 8,6 0,6 6 4 37 20 SW 1003,8 47 0,0
15.06.2018 21:00:00 8,9 0,3 13 7 37 20 WSW 1003,0 50 0,0
15.06.2018 20:00:00 9,1 1,0 14 8 39 21 SW 1002,6 48 0,0
15.06.2018 19:00:00 9,1 2,0 10 6 47 26 SW 1002,5 39 0,0
15.06.2018 18:00:00 9,8 2,2 11 6 47 26 SW 1001,7 40 0,0
15.06.2018 17:00:00 12,0 2,2 18 10 44 24 SW 1000,6 49 0,0
15.06.2018 16:00:00 12,3 2,2 14 8 46 25 WSW 1000,0 38 0,0
15.06.2018 15:00:00 8,9 3,5 13 7 51 27 WSW 1000,0 13 0,0
15.06.2018 14:00:00 11,6 5,0 12 6 51 27 W 999,2 30 0,2
15.06.2018 13:00:00 10,5 4,6 13 7 31 17 W 997,9 41 0,0
15.06.2018 12:00:00 8,6 3,2 11 6 31 17 WSW 997,3 49 0,0
15.06.2018 11:00:00 8,1 4,7 8 5 29 16 NW 996,7 21 0,3
15.06.2018 10:00:00 8,8 3,4 9 5 43 23 NE 995,8 42 0,0
15.06.2018 09:00:00 8,5 4,0 15 8 46 25 W 994,2 40 0,2
15.06.2018 08:00:00 7,9 4,7 15 8 44 24 WNW 993,6 23 1,7
15.06.2018 07:00:00 10,0 8,8 14 7 39 21 SSE 991,8 7 1,3
15.06.2018 06:00:00 10,5 8,3 16 9 45 24 SE 991,4 50 0,2
15.06.2018 05:00:00 10,9 7,6 19 10 45 24 SSE 991,1 50 0,1
15.06.2018 04:00:00 9,8 8,6 21 12 41 22 E 991,7 8 1,1
15.06.2018 03:00:00 9,7 8,6 25 14 41 22 SE 992,1 10 2,5
15.06.2018 02:00:00 9,1 8,7 23 13 42 23 SE 992,4 12 1,8
15.06.2018 01:00:00 9,1 8,7 23 12 40 21 SE 992,8 4,7 2,0
15.06.2018 00:00:00 8,6 8,2 15 8 38 20 SE 993,8 6 0,8
14.06.2018 23:00:00 7,9 7,6 17 9 38 20 SE 995,0 4,0 2,4
14.06.2018 22:00:00 7,6 7,2 23 12 38 20 SE 996,4 4,8 2,1
14.06.2018 21:00:00 7,4 6,5 22 12 42 23 SE 997,5 7 0,9
14.06.2018 20:00:00 7,0 6,1 22 12 48 26 SE 998,8 10 0,9
14.06.2018 19:00:00 7,2 6,0 23 13 48 26 SE 999,8 19 0,1
14.06.2018 18:00:00 7,5 5,8 23 12 38 20 SE 1000,6 15 0,7
14.06.2018 17:00:00 8,4 6,4 21 12 50 27 SE 1001,0 17 0,4
14.06.2018 16:00:00 10,0 5,2 23 13 50 27 SE 1000,7 24 0,0
14.06.2018 15:00:00 12,2 3,2 22 12 53 29 SSE 1000,5 47 0,0
14.06.2018 14:00:00 12,4 2,8 25 14 53 29 SSE 1000,7 47 0,0
14.06.2018 13:00:00 12,8 2,3 28 15 53 29 SSE 1001,1 50 0,0
14.06.2018 12:00:00 11,6 3,9 22 12 41 22 SE 1001,9 48 0,0
14.06.2018 11:00:00 10,4 3,2 20 11 39 21 SE 1003,0 49 0,0
14.06.2018 10:00:00 9,0 2,6 19 10 30 16 SE 1003,8 50 0,0
14.06.2018 09:00:00 7,9 2,8 15 8 31 17 SE 1004,6 50 0,0
14.06.2018 08:00:00 7,3 0,9 18 10 31 17 SSE 1005,0 50 0,0
14.06.2018 07:00:00 6,4 -0,4 16 9 24 13 ESE 1005,9 50 0,0
14.06.2018 06:00:00 6,4 -2,0 15 8 23 12 ESE 1006,4 50 0,0
14.06.2018 05:00:00 3,9 0,1 3 2 8 5 SSE 1007,6 50 0,0
14.06.2018 04:00:00 3,2 1,2 4 2 8 5 SSE 1008,4 50 0,0
14.06.2018 03:00:00 2,8 0,7 2 1 6 3 W 1008,8 50 0,0
14.06.2018 02:00:00 2,5 0,7 3 2 6 4 W 1009,1 50 0,0
14.06.2018 01:00:00 2,3 0,0 0 0 10 5 N 1009,6 50 0,0
14.06.2018 00:00:00 1,8 -0,8 0 0 10 5 N 1009,9 50 0,0
13.06.2018 23:00:00 2,8 -2,1 4 2 11 6 WNW 1009,9 50 0,0
13.06.2018 22:00:00 5,7 -2,6 2 1 17 9 WSW 1008,9 50 0,0
13.06.2018 21:00:00 7,5 -4,0 8 5 19 11 W 1008,5 50 0,0
13.06.2018 20:00:00 7,3 -3,9 8 4 19 11 WSW 1008,6 50 0,0
13.06.2018 19:00:00 7,9 -3,9 9 5 18 10 W 1008,5 50 0,0
13.06.2018 18:00:00 - - - - 16 8 - - - -
13.06.2018 17:00:00 7,8 -3,7 5 3 19 11 W 1008,5 50 0,0
13.06.2018 16:00:00 8,5 -2,8 7 4 19 11 NW 1008,4 44 0,0
13.06.2018 15:00:00 7,8 -3,7 9 5 21 12 NW 1008,6 50 0,0
13.06.2018 14:00:00 8,0 -4,1 8 4 21 12 WSW 1008,6 44 0,0
13.06.2018 13:00:00 7,2 -4,2 6 3 21 12 NW 1009,0 50 0,0
13.06.2018 12:00:00 6,9 -2,5 5 3 21 12 WNW 1009,0 50 0,0
13.06.2018 11:00:00 5,5 -3,3 11 6 25 14 N 1009,4 50 0,0
13.06.2018 10:00:00 5,7 -3,4 8 4 25 14 NW 1009,3 50 0,0
13.06.2018 09:00:00 5,8 -2,8 11 6 22 12 NW 1009,4 49 0,0
13.06.2018 08:00:00 3,5 -3,8 10 5 23 12 WNW 1010,0 50 0,0
13.06.2018 07:00:00 3,9 -3,8 11 6 23 12 WNW 1009,8 50 0,0
13.06.2018 06:00:00 4,2 -1,4 10 5 17 9 N 1009,8 48 0,0
13.06.2018 05:00:00 -1,8 -2,8 4 2 8 4 N 1011,1 50 0,0
13.06.2018 04:00:00 -2,3 -3,3 4 2 23 13 W 1011,2 50 0,0
13.06.2018 03:00:00 -0,8 -2,5 3 2 23 13 N 1010,7 50 0,0
13.06.2018 02:00:00 -0,1 -2,5 10 6 27 15 NW 1010,4 50 0,0
13.06.2018 01:00:00 0,6 -2,0 10 5 27 15 NNW 1010,0 50 0,0
13.06.2018 00:00:00 1,3 -1,1 11 6 23 12 NW 1009,9 50 0,0
12.06.2018 23:00:00 2,4 -0,5 14 8 24 13 NNW 1009,4 50 0,0
12.06.2018 22:00:00 3,6 -0,2 9 5 29 16 NW 1008,9 50 0,0
12.06.2018 21:00:00 4,4 0,2 11 6 31 17 NW 1008,4 50 0,0
12.06.2018 20:00:00 6,6 0,7 14 7 34 19 NW 1007,7 50 0,0
12.06.2018 19:00:00 6,7 1,0 18 10 34 19 WNW 1007,5 50 0,0
12.06.2018 18:00:00 7,2 1,1 18 10 34 18 WNW 1007,2 50 0,0
12.06.2018 17:00:00 - - - - 32 17 - - - -
12.06.2018 16:00:00 7,2 0,8 11 6 42 23 WNW 1007,1 49 0,0
12.06.2018 15:00:00 6,9 0,6 19 10 42 23 NNW 1007,3 39 0,0

tt = Température de l'air
td = dewpoint
ff = Vitesse du vent
fx = gusts
dd = Direction du vent
ppp = reduced air pressure
vv = visibility
rr = Quantités de précipitations

stations d'obs. à proximité